Texas Shootout - LOFT FLY

Station: LOFT CHECK - T Race

Distance: 1 Miles    

Release: 07-Sep-2017 07:20

Weather Release:    Arrival:

Wind at Release:     Wind at Arrival:

Temp at Release: °    Temp at Arrival: °

Lofts: 162

Birds: 950

Clocked: 948

LOFT FLYING FOR THE LAST 2 DAYS
Drops Pos Breeder Pigeon Name Color Sex Ent Arrival Speed To Win Eligible
492 Wartick Loft - KS 35897-AU17-AA BWFP H 4 2017-09-17 08:48:55.34 0.140 208:04:0 Yes
492 Zheng Loft - FL 0118-AU17-LIN BB H 4 2017-09-17 08:48:55.53 0.140 208:04:0 Yes
492 Hutchins Loft - TX 16087-AU17-QS BB H 6 2017-09-17 08:48:55.56 0.140 208:04:0 Yes
492 Bryan Maier - PA 0392-IF17-MAER BC H 4 2017-09-17 08:48:55.94 0.140 208:04:0 Died
492 Quest Syndicate/Any Given Day Loft - TX 16606-AU17-QS BB H 9 2017-09-17 08:48:56.17 0.140 208:04:0 Yes
492 Yong Bi - TX 59033-AU17-ARPU BC H 5 2017-09-17 08:48:56.49 0.140 208:04:0 Yes
492 Zhenyuan Guo - SC 70758-AU17-ARPU BB H 2 2017-09-17 08:48:56.53 0.140 208:04:0 Yes
492 Dave Byer - CA 5722-AU17-ARPU BB H 7 2017-09-17 08:48:56.72 0.140 208:04:0 Yes
492 Lechuga Loft - TX 0008-MX17-LECH BB C 1 2017-09-17 08:48:56.91 0.140 208:04:0 Yes
492 Neighbor Hood Bullies - TX 1000-AU17-ARPU DWFP H 12 2017-09-17 08:48:57.03 0.140 208:04:0 Yes
492 Da Dong - WI 0814-AU17-DONG BBSP C 4 2017-09-17 08:48:57.28 0.140 208:04:0 Yes
492 Dream Union - DC 1122-IF17-SLP BB H 4 2017-09-17 08:48:57.52 0.140 208:04:0 Yes
492 Sandstrom Brothers Loft - MN 0809-AU17-SBL DCPD H 2 2017-09-17 08:48:57.64 0.140 208:04:0 Yes
492 Chen Loft - PA 0286-AU17-LU BC H 2 2017-09-17 08:48:57.86 0.140 208:04:0 Yes
492 Taj Syndicate - TX 0099-AU17-EISN BB C 6 2017-09-17 08:48:57.97 0.140 208:04:0 Yes
492 Dream Team - VT 0899-AU17-JCZL BB C 11 2017-09-17 08:48:58.33 0.140 208:04:0 Yes
492 Flying D / Matt Mitchell - TX 0195-AU17-FLYD BB H 4 2017-09-17 08:48:58.38 0.140 208:04:0 Yes
492 Shallow Pockets - TX 0066-AU17-SHAL BB C 5 2017-09-17 08:48:58.47 0.140 208:04:0 Yes
492 Y Mtn Loft - TN 0692-AU17-GUO BB H 2 2017-09-17 08:48:58.52 0.140 208:04:0 Yes
492 English Syndicate - UK 12527-GB17-D BCWF C 7 2017-09-17 08:48:58.64 0.140 208:04:0 Yes
492 Crestview Loft - TX 1337-AU17-CVL BB H 4 2017-09-17 08:48:58.94 0.140 208:04:0 Yes
492 Little Reata Loft - TX 17344-AU17-JETT BC H 8 2017-09-17 08:48:59.06 0.140 208:04:0 Yes
492 777 Victory Loft - NY 0133-AU17-NYLN CWFP H 3 2017-09-17 08:48:59.08 0.140 208:04:0 Yes
492 Russell Hall - TX 7015-AU17-HALL BB H 5 2017-09-17 08:48:59.34 0.140 208:04:0 Yes
492 Casale/Miner - CA 1751-AU17-VG BBWF H 2 2017-09-17 08:48:59.49 0.140 208:04:0 Yes
492 Charlie Barbiere - NJ 1923-IF17-BSC BB H 2 2017-09-17 08:48:59.50 0.140 208:04:0 Yes
492 Nemelka Racing Pigeon Loft - UT 7136-AU17-NRPL Magician x 1106 BC H 2 2017-09-17 08:48:59.63 0.140 208:04:0 Yes
492 Nemelka Racing Pigeon Loft - UT 7128-AU17-NRPL 1096 x 1034 BC H 3 2017-09-17 08:48:59.81 0.140 208:04:0 Yes
492 Bill Kluge - TX 1705-AU17-COLD BB H 8 2017-09-17 08:49:00.17 0.140 208:04:0 Yes
492 Dream Team - VT 0546-AU17-JCZL BC H 5 2017-09-17 08:49:00.49 0.140 208:04:0 Yes
492 Barry Venn - WY 1977-AU17-VENN BB C 4 2017-09-17 08:49:00.53 0.140 208:04:0 Yes
492 Baptista - IL 0022-AU17-BAPT BWFP H 5 2017-09-17 08:49:00.95 0.140 208:04:0 Yes
492 Marengo Creek Farms - AL 2771-AU17-MCF BB H 8 2017-09-17 08:49:01.00 0.140 208:04:0 Yes
492 Ecker/Murphy Syndicate - PA 2372-IF17-CVR BWFP H 8 2017-09-17 08:49:01.09 0.140 208:04:0 Yes
492 Sky Dancer Loft - TX 0333-AU17-WWC Bolero BB H 5 2017-09-17 08:49:01.17 0.140 208:04:0 Yes
492 Arandas Loft - TX 14361-AU17-ARPU DC H 3 2017-09-17 08:49:01.47 0.140 208:04:0 Yes
492 Skylinerpl.Com - UT 0951-AU17-UVI "Pouw Girl" BC H 3 2017-09-17 08:49:01.59 0.140 208:04:0 Yes
492 Kim Wong - VT 10896-AU17-ARPU BB H 3 2017-09-17 08:49:02.30 0.140 208:04:0 Yes
492 Sky King Loft - TX 16906-AU17-QS BC H 4 2017-09-17 08:49:02.58 0.140 208:04:0 Yes
492 Dave Byer - CA 5717-AU17-ARPU BB H 5 2017-09-17 08:49:02.61 0.140 208:04:0 Yes
492 Yendez Loft - TX 23140-AU17-AA COCB H 5 2017-09-17 08:49:02.66 0.140 208:04:0 Yes
492 Perfection Loft - KS 3749-AU17-AA BB C 5 2017-09-17 08:49:02.70 0.140 208:04:0 Yes
492 Sky Dancer Loft - TX 0332-AU17-WWC Patricio BBWF C 3 2017-09-17 08:49:02.80 0.140 208:04:0 Yes
492 Arandas Loft - TX 14366-AU17-ARPU BB H 2 2017-09-17 08:49:02.92 0.140 208:04:0 Yes
492 ! ! ! S P E E D S - R A C E R S ! ! ! - FL 3892-AU17-SCHE BB C 5 2017-09-17 08:49:02.94 0.140 208:04:0 Yes
492 New Orleans Boys - LA 0748-AU17-MET BC H 5 2017-09-17 08:49:03.06 0.140 208:04:0 Yes
492 Bynum Family Lofts - TX 0202-AU17-BFL BBPD H 4 2017-09-17 08:49:03.25 0.140 208:04:0 Yes
492 Cbs & Steve - OK 1428-AU17-CBS BC C 6 2017-09-17 08:49:03.30 0.140 208:04:0 Yes
492 Quest Syndicate - TX 16118-AU17-QS BWFP H 3 2017-09-17 08:49:03.63 0.140 208:04:0 Yes
492 Racing Pigeon Mall - WA 0711-AU17-RPM BB C 6 2017-09-17 08:49:04.17 0.140 208:04:0 Yes
492 Steven Loft - TX 5878-AU17-ARPU BB C 5 2017-09-17 08:49:04.19 0.140 208:04:0 Yes
492 K & J Loft - OK 1730-AU17-VK BBWF C 3 2017-09-17 08:49:04.31 0.140 208:04:0 Yes
492 Medina Loft - TX 0171-AU17-MDNA BC H 6 2017-09-17 08:49:04.33 0.140 208:04:0 Yes
492 Two Cousins - LA 3072-AU17-BYOU DC H 2 2017-09-17 08:49:04.69 0.140 208:04:0 Yes
492 Russell Hall - TX 7023-AU17-HALL BBSP H 3 2017-09-17 08:49:04.72 0.140 208:04:0 Yes
492 Chinese Union 2 - VA 5086-AU17-TONY BWFP C 5 2017-09-17 08:49:04.77 0.140 208:04:0 Yes
492 Holleys Silver Star - TX 0943-AU17-DEN SIL C 10 2017-09-17 08:49:05.00 0.140 208:04:0 Yes
492 New Orleans Boys 2 - LA 0339-AU17-MET DCWF C 8 2017-09-17 08:49:05.24 0.140 208:04:0 Yes
492 Buck`S - TX 2046-AU17-KBUC BC H 6 2017-09-17 08:49:05.28 0.140 208:04:0 Yes
492 Tou Loft - TN 0039-AU17-TOU BB C 3 2017-09-17 08:49:05.41 0.140 208:04:0 Yes
492 Drama Queen Loft - TX 1280-AU17-GCI BC H 4 2017-09-17 08:49:05.56 0.140 208:04:0 Yes
492 Da Dong - WI 0345-AU17-RAC BB H 8 2017-09-17 08:49:05.61 0.140 208:04:0 Yes
492 Kim Wong - VT 10892-AU17-ARPU BB C 5 2017-09-17 08:49:05.83 0.140 208:04:0 Yes
492 Larry Payne - KS 0276-AU17-LPL BB C 6 2017-09-17 08:49:05.92 0.140 208:04:0 Yes
492 Flying D Diva - TX 0141-AU17-FLYD BWFP H 6 2017-09-17 08:49:05.97 0.140 208:04:0 Yes
492 Dream Team - VT 0788-AU17-JCZL GRIZ H 8 2017-09-17 08:49:06.02 0.140 208:04:0 Yes
492 Frank Martinez - CA 8201-AU17-FORT BC H 2 2017-09-17 08:49:06.06 0.140 208:04:0 Yes
492 Dream Union - DC 1136-IF17-SLP BB C 3 2017-09-17 08:49:06.20 0.140 208:04:0 Yes
492 Little Reata Loft - TX 17328-AU17-JETT BC H 11 2017-09-17 08:49:06.28 0.140 208:04:0 Yes
492 Baldwin / Tilson - NC 7123-AU17-TNTL BB H 5 2017-09-17 08:49:06.44 0.140 208:04:0 Yes
492 Zhenyuan Guo - SC 0689-AU17-GUO BC H 7 2017-09-17 08:49:06.49 0.140 208:04:0 Yes
492 Nemelka Racing Pigeon Loft - UT 7141-AU17-NRPL 4010 x Miss Beaut BC H 5 2017-09-17 08:49:06.56 0.140 208:04:0 Yes
492 C B S & Big Mike - OK 1914-AU17-CBS BCWF H 5 2017-09-17 08:49:06.61 0.140 208:04:0 Yes
492 Chen Loft - PA 1705-AU17-CHEN BB C 7 2017-09-17 08:49:06.63 0.140 208:04:0 Yes
492 Flying D / Matt Mitchell - TX 0193-AU17-FLYD BBWF H 3 2017-09-17 08:49:06.99 0.140 208:04:0 Yes
492 K & J Loft - OK 1725-AU17-VK BB H 5 2017-09-17 08:49:07.36 0.140 208:04:0 Yes
492 Tex-Mex Loft - TX 0653-AU17-NSL Pete BB H 13 2017-09-17 08:49:07.50 0.140 208:04:0 Yes
492 Two Cousins - LA 3071-AU17-BYOU DWFP H 3 2017-09-17 08:49:07.58 0.140 208:04:0 Yes
492 Alfonso Garcia - TX 0271-AU17-DAL DC H 5 2017-09-17 08:49:07.77 0.140 208:04:0 Yes
492 Utaz Boys/ Jones - UT 1082-AU17-SLI BB H 1 2017-09-17 08:49:07.78 0.140 208:04:0 Yes
492 Cajun Express Loft - LA 0834-AU17-CEL BC H 5 2017-09-17 08:49:07.89 0.140 208:04:0 Yes
492 Racing Pigeon Mall - WA 0709-AU17-RPM BB C 4 2017-09-17 08:49:08.03 0.140 208:04:0 Yes
492 Dekeratry Loft - TX 7486-AU17-HOT RC H 3 2017-09-17 08:49:08.09 0.140 208:04:0 Yes
492 A D L Loft - IL 0169-AU17-ADL BBWF H 9 2017-09-17 08:49:08.33 0.140 208:04:0 Yes
492 Bionic Loft - LA 0625-AU17-CAJN BC H 3 2017-09-17 08:49:08.36 0.140 208:04:0 Yes
492 Baden Feed - ON 7141-IF17-S BC H 5 2017-09-17 08:49:08.64 0.140 208:04:0 Yes
492 Relax & Barger - CA 71999-AU17-MAN BB H 5 2017-09-17 08:49:08.74 0.140 208:04:0 Yes
492 Nemeth Loft - CA 8783-AU17-BON BBWF H 3 2017-09-17 08:49:08.78 0.140 208:04:0 Yes
492 O & L De Vries - ON 2423-AU17-OL BC H 4 2017-09-17 08:49:09.11 0.140 208:04:0 Yes
492 Hillbilly Loft - TX 17642-AU17-AA BWFP H 8 2017-09-17 08:49:09.14 0.140 208:04:0 Yes
492 Rossi Loft Llc - WI 2088-AU17-KEN BB H 5 2017-09-17 08:49:09.42 0.140 208:04:0 Yes
492 Holleys Silver Star - TX 0928-AU17-DEN BB C 13 2017-09-17 08:49:09.59 0.140 208:04:0 Yes
492 Clear Springs Loft - FL 17105-AU17-WARD BB H 5 2017-09-17 08:49:09.74 0.140 208:04:0 Yes
492 K & J Loft - OK 1701-AU17-VK BWFP C 2 2017-09-17 08:49:09.89 0.140 208:04:0 Yes
492 Ed Minvielle - LA 17228-AU17-A PNCL C 4 2017-09-17 08:49:10.16 0.140 208:04:0 Yes
492 Hi-Cal Connection - CA 0888-AU17-HICA BB C 4 2017-09-17 08:49:10.17 0.140 208:04:0 Yes
492 Yong Bi - TX 59034-AU17-ARPU BC C 4 2017-09-17 08:49:10.28 0.140 208:04:0 Yes
492 Dream Union - DC 1160-IF17-SLP BC H 6 2017-09-17 08:49:10.61 0.140 208:04:0 Yes
492 Kwan Loft - CA 6228-AU17-HIPT BB H 3 2017-09-17 08:49:10.80 0.140 208:04:0 Yes
492 Gossett & Son - TX 1008-AU17-WF DC H 4 2017-09-17 08:49:10.81 0.140 208:04:0 Yes

There are 989 bird records

Note: These Race Results are unofficial and subject to change until verified by the Race Committee and declared final.